This is the latest recevied weather packets stored in our database for station/object KD2SIG. If no packets are shown the sender has not sent any weather packets the latest 10 day(s).
| Time | Temp. | Humidity | Pressure | Rain* | Wind** | Luminosity | Snow |
|---|---|---|---|---|---|---|---|
| 1777931758 | 21.67° C | 46% | 1004 hPa | 0 mm | - | 211 W/m² | - |
| 1777931456 | 21.67° C | 47% | 1004 hPa | 0 mm | - | 220 W/m² | - |
| 1777931151 | 21.11° C | 46% | 1004.2 hPa | 0 mm | - | 247 W/m² | - |
| 1777930848 | 21.11° C | 45% | 1004.2 hPa | 0 mm | - | 257 W/m² | - |
| 1777930544 | 21.67° C | 47% | 1004.2 hPa | 0 mm | - | 265 W/m² | - |
| 1777930242 | 21.67° C | 45% | 1004.3 hPa | 0 mm | - | 275 W/m² | - |
| 1777929937 | 21.67° C | 48% | 1004.3 hPa | 0 mm | - | 322 W/m² | - |
| 1777929635 | 21.67° C | 46% | 1004.2 hPa | 0 mm | - | 343 W/m² | - |
| 1777929332 | 21.11° C | 46% | 1004.1 hPa | 0 mm | - | 326 W/m² | - |
| 1777929029 | 21.67° C | 46% | 1004.3 hPa | 0 mm | - | 309 W/m² | - |
| 1777928726 | 21.67° C | 45% | 1004.2 hPa | 0 mm | - | 311 W/m² | - |
| 1777928422 | 21.67° C | 46% | 1004.3 hPa | 0 mm | - | 364 W/m² | - |
| 1777928120 | 21.11° C | 46% | 1004.3 hPa | 0 mm | - | 372 W/m² | - |
| 1777927818 | 21.67° C | 46% | 1004.4 hPa | 0 mm | - | 363 W/m² | - |
| 1777927516 | 21.67° C | 47% | 1004.4 hPa | 0 mm | - | 412 W/m² | - |
| 1777927215 | 21.67° C | 47% | 1004.4 hPa | 0 mm | - | 409 W/m² | - |
| 1777926912 | 21.67° C | 46% | 1004.5 hPa | 0 mm | - | 462 W/m² | - |
| 1777926609 | 21.67° C | 47% | 1004.4 hPa | 0 mm | - | 430 W/m² | - |
| 1777926305 | 21.67° C | 48% | 1004.4 hPa | 0 mm | - | 433 W/m² | - |
| 1777926001 | 21.67° C | 47% | 1004.6 hPa | 0 mm | - | 442 W/m² | - |
| 1777925699 | 21.67° C | 46% | 1004.4 hPa | 0 mm | - | 498 W/m² | - |
| 1777925396 | 21.67° C | 48% | 1004.6 hPa | 0 mm | - | 519 W/m² | - |
| 1777925093 | 21.67° C | 48% | 1004.8 hPa | 0 mm | - | 513 W/m² | - |
| 1777924789 | 21.11° C | 48% | 1004.8 hPa | 0 mm | - | 538 W/m² | - |
| 1777924485 | 21.11° C | 48% | 1004.6 hPa | 0 mm | - | 550 W/m² | - |
* Rain latest hour (hover to see other rain measurements)
** Current wind speed in m/s (hover to see current wind gust speed)